| time (UTC) | temp F | wind direction | speed knots | gust knots | rain 1hr in | rain 24hr in | rain mn in | humidity % | barometer mb |
| 20260507180033 | 63 | 229 | 6.1 | 13.9 | 0.00 | 0.00 | 0.00 | 56 | 1013.9 |
| 20260507174534 | 63 | 286 | 8.7 | 16.5 | 0.00 | 0.00 | 0.00 | 54 | 1014.2 |
| 20260507173034 | 63 | 257 | 7.8 | 13.0 | 0.00 | 0.00 | 0.00 | 56 | 1014.4 |
| 20260507171532 | 63 | 219 | 6.1 | 15.6 | 0.00 | 0.00 | 0.00 | 55 | 1014.6 |
| 20260507170032 | 62 | 254 | 8.7 | 15.6 | 0.00 | 0.00 | 0.00 | 55 | 1014.9 |
| 20260507164534 | 61 | 236 | 4.3 | 12.2 | 0.00 | 0.00 | 0.00 | 58 | 1015.1 |
| 20260507163031 | 61 | 236 | 7.0 | 16.5 | 0.00 | 0.00 | 0.00 | 57 | 1015.3 |
| 20260507161529 | 61 | 285 | 4.3 | 13.0 | 0.00 | 0.00 | 0.00 | 59 | 1015.3 |
| 20260507160035 | 61 | 248 | 4.3 | 10.4 | 0.00 | 0.00 | 0.00 | 59 | 1015.4 |
| 20260507154533 | 60 | 305 | 4.3 | 13.0 | 0.00 | 0.00 | 0.00 | 60 | 1015.7 |
| 20260507153031 | 59 | 245 | 4.3 | 9.6 | 0.00 | 0.00 | 0.00 | 64 | 1015.8 |
| 20260507151530 | 58 | 221 | 5.2 | 13.0 | 0.00 | 0.00 | 0.00 | 63 | 1015.8 |
| 20260507150028 | 57 | 302 | 4.3 | 11.3 | 0.00 | 0.00 | 0.00 | 63 | 1016.1 |
| 20260507144532 | 56 | 264 | 3.5 | 10.4 | 0.00 | 0.00 | 0.00 | 66 | 1016.3 |
| 20260507143053 | 55 | 230 | 3.5 | 7.8 | 0.00 | 0.00 | 0.00 | 69 | 1016.3 |
| 20260507141539 | 54 | 252 | 2.6 | 10.4 | 0.00 | 0.00 | 0.00 | 71 | 1016.2 |
| 20260507140028 | 53 | 281 | 1.7 | 8.7 | 0.00 | 0.00 | 0.00 | 75 | 1016.4 |
| 20260507134530 | 52 | 310 | 3.5 | 9.6 | 0.00 | 0.00 | 0.00 | 75 | 1016.3 |
| 20260507133028 | 51 | 272 | 2.6 | 9.6 | 0.00 | 0.00 | 0.00 | 76 | 1016.4 |
| 20260507131537 | 51 | 324 | 1.7 | 7.8 | 0.00 | 0.00 | 0.00 | 78 | 1016.4 |
| 20260507130039 | 49 | 249 | 2.6 | 7.0 | 0.00 | 0.00 | 0.00 | 78 | 1016.5 |
| 20260507124531 | 48 | 279 | 2.6 | 7.0 | 0.00 | 0.00 | 0.00 | 80 | 1016.5 |
| 20260507123031 | 47 | 242 | 2.6 | 6.1 | 0.00 | 0.00 | 0.00 | 80 | 1016.6 |
| 20260507121528 | 47 | 249 | 2.6 | 7.0 | 0.00 | 0.00 | 0.00 | 81 | 1016.6 |
| 20260507120028 | 46 | 237 | 1.7 | 3.5 | 0.00 | 0.00 | 0.00 | 82 | 1016.5 |
| 20260507114532 | 45 | 259 | 1.7 | 5.2 | 0.00 | 0.00 | 0.00 | 82 | 1016.4 |
| 20260507113031 | 45 | 262 | 1.7 | 4.3 | 0.00 | 0.00 | 0.00 | 81 | 1016.5 |
| 20260507111530 | 45 | 261 | 1.7 | 3.5 | 0.00 | 0.00 | 0.00 | 81 | 1016.5 |
| 20260507110029 | 45 | 242 | 0.9 | 3.5 | 0.00 | 0.00 | 0.00 | 81 | 1016.4 |
| 20260507104528 | 45 | 242 | 0.9 | 3.5 | 0.00 | 0.00 | 0.00 | 80 | 1016.3 |
| 20260507103032 | 45 | 244 | 0.9 | 3.5 | 0.00 | 0.00 | 0.00 | 80 | 1016.4 |
| 20260507101530 | 45 | 0 | 0.0 | 3.5 | 0.00 | 0.00 | 0.00 | 80 | 1016.5 |
| 20260507100036 | 44 | 254 | 0.9 | 4.3 | 0.00 | 0.00 | 0.00 | 81 | 1016.5 |
| 20260507094531 | 44 | 238 | 0.0 | 3.5 | 0.00 | 0.00 | 0.00 | 81 | 1016.5 |
| 20260507093028 | 43 | 0 | 0.0 | 2.6 | 0.00 | 0.00 | 0.00 | 81 | 1016.6 |
| 20260507091534 | 44 | 0 | 0.0 | 2.6 | 0.00 | 0.00 | 0.00 | 81 | 1016.7 |
| 20260507090032 | 44 | 0 | 0.0 | 1.7 | 0.00 | 0.00 | 0.00 | 80 | 1016.7 |
| 20260507084531 | 44 | 0 | 0.0 | 1.7 | 0.00 | 0.00 | 0.00 | 80 | 1016.9 |
| 20260507083030 | 44 | 241 | 0.9 | 2.6 | 0.00 | 0.00 | 0.00 | 81 | 1016.9 |
| 20260507081530 | 44 | 221 | 0.0 | 1.7 | 0.00 | 0.00 | 0.00 | 79 | 1017.0 |
| 20260507080031 | 45 | 0 | 0.0 | 1.7 | 0.00 | 0.00 | 0.00 | 78 | 1016.9 |
| 20260507074528 | 45 | 0 | 0.0 | 3.5 | 0.00 | 0.00 | 0.00 | 77 | 1016.9 |
| 20260507073032 | 45 | 0 | 0.0 | 2.6 | 0.00 | 0.00 | 0.00 | 78 | 1016.9 |
| 20260507071534 | 45 | 0 | 0.0 | 2.6 | 0.00 | 0.00 | 0.00 | 77 | 1017.2 |
| 20260507070033 | 45 | 0 | 0.0 | 1.7 | 0.00 | 0.00 | 0.00 | 75 | 1017.4 |
| 20260507064548 | 46 | 0 | 0.0 | 1.7 | 0.00 | 0.01 | 0.00 | 73 | 1017.5 |
| 20260507063033 | 47 | 241 | 0.0 | 2.6 | 0.00 | 0.01 | 0.00 | 73 | 1017.5 |
| 20260507061530 | 47 | 0 | 0.0 | 3.5 | 0.00 | 0.01 | 0.00 | 73 | 1017.5 |
| 20260507060032 | 46 | 269 | 0.9 | 4.3 | 0.00 | 0.01 | 0.00 | 80 | 1017.6 |
| 20260507054529 | 46 | 0 | 0.0 | 0.9 | 0.00 | 0.02 | 0.00 | 82 | 1017.6 |
| 20260507053031 | 46 | 0 | 0.0 | 1.7 | 0.00 | 0.02 | 0.00 | 83 | 1017.6 |
| 20260507051529 | 46 | 0 | 0.0 | 0.0 | 0.00 | 0.02 | 0.00 | 85 | 1017.6 |
| 20260507050040 | 45 | 0 | 0.0 | 1.7 | 0.00 | 0.02 | 0.00 | 87 | 1017.6 |
| 20260507044528 | 44 | 0 | 0.0 | 0.0 | 0.00 | 0.03 | 0.02 | 89 | 1017.7 |
| 20260507043030 | 44 | 0 | 0.0 | 0.9 | 0.00 | 0.03 | 0.02 | 88 | 1017.6 |
| 20260507041532 | 44 | 0 | 0.0 | 0.0 | 0.00 | 0.03 | 0.02 | 88 | 1017.5 |
| 20260507040030 | 44 | 0 | 0.0 | 0.0 | 0.00 | 0.03 | 0.02 | 86 | 1017.8 |
| 20260507034531 | 43 | 0 | 0.0 | 0.0 | 0.00 | 0.03 | 0.02 | 85 | 1017.7 |
| 20260507033028 | 44 | 0 | 0.0 | 0.0 | 0.00 | 0.03 | 0.02 | 83 | 1017.9 |
| 20260507031533 | 44 | 0 | 0.0 | 0.0 | 0.00 | 0.03 | 0.02 | 81 | 1017.7 |
| 20260507030035 | 45 | 0 | 0.0 | 0.0 | 0.00 | 0.03 | 0.02 | 78 | 1017.8 |
| 20260507024533 | 45 | 0 | 0.0 | 0.0 | 0.00 | 0.03 | 0.02 | 75 | 1017.7 |
| 20260507023031 | 46 | 0 | 0.0 | 0.0 | 0.00 | 0.03 | 0.02 | 71 | 1017.5 |
| 20260507021531 | 48 | 0 | 0.0 | 0.0 | 0.00 | 0.03 | 0.02 | 68 | 1017.5 |
| 20260507020034 | 49 | 0 | 0.0 | 0.0 | 0.00 | 0.03 | 0.02 | 62 | 1017.3 |
| 20260507014532 | 51 | 0 | 0.0 | 0.0 | 0.00 | 0.03 | 0.02 | 60 | 1017.3 |
| 20260507013032 | 53 | 0 | 0.0 | 0.0 | 0.00 | 0.03 | 0.02 | 57 | 1017.2 |
| 20260507011534 | 55 | 0 | 0.0 | 0.0 | 0.00 | 0.03 | 0.02 | 50 | 1017.1 |
| 20260507010048 | 57 | 0 | 0.0 | 0.0 | 0.00 | 0.03 | 0.02 | 44 | 1017.0 |
| 20260507004534 | 59 | 0 | 0.0 | 0.9 | 0.00 | 0.03 | 0.02 | 41 | 1017.1 |
| 20260507003030 | 59 | 0 | 0.0 | 0.9 | 0.00 | 0.03 | 0.02 | 41 | 1017.0 |
| 20260507001533 | 60 | 0 | 0.0 | 8.7 | 0.00 | 0.03 | 0.02 | 39 | 1017.1 |
| 20260507000032 | 60 | 0 | 0.0 | 7.0 | 0.00 | 0.03 | 0.02 | 37 | 1016.9 |
| 20260506234531 | 60 | 25 | 0.0 | 3.5 | 0.00 | 0.03 | 0.02 | 38 | 1017.1 |
| 20260506233033 | 61 | 42 | 0.0 | 11.3 | 0.00 | 0.03 | 0.02 | 37 | 1017.1 |
| 20260506231531 | 62 | 0 | 0.9 | 7.8 | 0.00 | 0.03 | 0.02 | 40 | 1017.1 |
| 20260506230029 | 62 | 44 | 0.0 | 7.8 | 0.00 | 0.03 | 0.02 | 38 | 1017.1 |
| 20260506224537 | 62 | 0 | 0.0 | 6.1 | 0.00 | 0.03 | 0.02 | 38 | 1017.1 |
| 20260506223032 | 62 | 111 | 0.9 | 5.2 | 0.00 | 0.03 | 0.02 | 35 | 1017.0 |
| 20260506221530 | 61 | 29 | 0.0 | 9.6 | 0.00 | 0.03 | 0.02 | 35 | 1017.1 |
| 20260506220035 | 61 | 0 | 0.0 | 5.2 | 0.00 | 0.03 | 0.02 | 39 | 1017.3 |
| 20260506214536 | 62 | 341 | 1.7 | 10.4 | 0.00 | 0.03 | 0.02 | 38 | 1017.4 |
| 20260506213028 | 62 | 30 | 0.9 | 5.2 | 0.00 | 0.03 | 0.02 | 37 | 1017.4 |
| 20260506211534 | 61 | 0 | 0.0 | 3.5 | 0.00 | 0.03 | 0.02 | 38 | 1017.6 |
| 20260506210034 | 61 | 14 | 1.7 | 7.8 | 0.00 | 0.03 | 0.02 | 36 | 1017.9 |
| 20260506204535 | 61 | 0 | 0.9 | 6.1 | 0.00 | 0.03 | 0.02 | 36 | 1018.1 |
| 20260506203032 | 61 | 0 | 0.9 | 4.3 | 0.00 | 0.03 | 0.02 | 43 | 1018.4 |
| 20260506201538 | 60 | 0 | 0.9 | 7.0 | 0.00 | 0.03 | 0.02 | 43 | 1018.5 |
| 20260506200030 | 59 | 360 | 0.9 | 14.8 | 0.00 | 0.03 | 0.02 | 38 | 1018.5 |
| 20260506194528 | 59 | 288 | 1.7 | 6.1 | 0.00 | 0.03 | 0.02 | 38 | 1018.6 |
| 20260506193028 | 59 | 40 | 0.9 | 9.6 | 0.00 | 0.03 | 0.02 | 42 | 1018.7 |
| 20260506191533 | 58 | 30 | 0.0 | 7.8 | 0.00 | 0.03 | 0.02 | 42 | 1018.8 |
| 20260506190032 | 58 | 0 | 0.0 | 11.3 | 0.00 | 0.03 | 0.02 | 39 | 1018.7 |
| 20260506184533 | 58 | 352 | 0.9 | 10.4 | 0.00 | 0.03 | 0.02 | 43 | 1018.9 |
| 20260506183032 | 58 | 33 | 1.7 | 7.8 | 0.00 | 0.03 | 0.02 | 44 | 1019.2 |
| 20260506181532 | 57 | 0 | 0.9 | 7.0 | 0.00 | 0.03 | 0.02 | 46 | 1019.5 |